Retour au catalogue

METEOR 2-11 DEB

ActifPO
NORAD 40710·DEBRIS·🇷🇺 Russia

Lancé Jul 5, 1984 depuis Plesetsk Cosmodrome

Loading…

Prochains Passages (prochaines 24 heures)

TLE

FraisSource: Space-Track

Époque: Sep 13, 2026, 09:03 UTC

1 40710U 84072M   26256.37733833  .00001431  00000-0  10035-2 0  9991
2 40710  82.5253 298.2707 0039710 138.4292 221.9907 13.97297300123448

Suivez METEOR 2-11 DEB en temps réel avec AllMySat

Download on the App Store